Wind_Speed
31 31 31 33 33 33 35 37 39 39 38 36 34 36 36 37 37 38 38 38 39 39 39 39 39 39 39 39 39 39 39 39 39 39 39 39 39 39 40 41 42 43 43 43
30 31 32 34 34 33 34 35 37 38 38 37 36 37 37 37 38 38 37 37 37 38 38 38 38 38 39 39 39 39 39 39 39 39 39 38 38 38 38 40 41 42 42 42
29 31 33 33 33 34 35 35 36 36 36 37 37 38 38 38 39 39 39 38 38 38 38 38 37 38 38 39 39 39 39 39 39 39 39 39 38 37 37 38 39 40 40 40
27 29 31 31 32 33 34 35 36 36 36 36 36 38 38 38 38 38 38 38 38 38 38 38 38 39 39 39 39 39 39 39 39 38 37 37 37 37 37 37 38 38 38 39
25 25 27 28 30 31 33 34 35 36 37 37 37 38 39 39 38 37 37 38 38 38 38 38 38 38 38 39 39 39 39 39 38 38 38 37 37 36 36 37 37 37 37 38
22 24 24 24 25 27 29 30 30 32 34 36 36 37 37 37 38 37 37 38 38 38 38 38 38 38 38 38 39 39 39 39 39 39 38 37 37 36 36 36 36 36 36 36
19 21 22 22 22 24 26 27 28 29 30 32 34 35 36 36 37 37 37 38 37 37 37 37 37 37 37 37 37 38 38 38 38 38 37 37 37 36 36 35 35 35 35 35
17 18 20 21 21 23 25 27 28 28 29 30 31 33 34 34 35 35 35 36 36 36 36 36 36 36 36 37 37 37 37 37 38 37 37 36 36 36 36 36 36 36 36 36
17 18 17 19 21 22 23 25 26 27 27 27 28 28 30 31 31 32 34 35 35 35 35 34 35 35 36 36 36 36 36 36 37 37 36 37 37 36 36 37 36 36 36 36
17 17 17 17 19 20 21 22 23 25 25 25 26 27 27 28 29 30 32 33 34 34 35 35 34 34 34 34 35 35 36 36 36 36 36 37 37 37 37 37 37 37 37 37
16 16 16 17 18 19 20 21 22 23 24 24 24 25 26 27 29 30 30 32 32 33 34 34 34 34 33 33 34 35 35 35 35 36 36 37 37 37 37 38 38 38 38 38
15 16 16 16 17 19 20 21 22 23 23 24 24 24 25 26 27 28 29 30 31 32 33 33 33 33 33 33 34 34 34 34 35 35 35 36 36 37 38 38 38 38 39 39
15 15 15 16 16 17 19 20 21 22 23 23 24 24 24 25 27 27 28 29 31 31 32 32 32 33 33 33 33 33 33 34 34 34 34 35 35 36 37 38 38 38 39 39
15 15 16 16 16 17 17 18 20 21 22 23 23 24 25 25 26 27 27 28 30 31 31 32 32 33 33 33 33 33 33 34 34 34 34 34 35 36 37 38 38 39 39 40
14 15 16 16 16 16 17 18 19 21 22 23 24 24 25 25 26 27 27 28 29 30 30 31 31 32 33 33 33 33 33 33 33 33 33 33 33 34 35 36 37 37 38 39
14 14 15 16 16 16 17 18 19 20 21 21 22 23 24 25 26 26 27 28 29 30 31 31 31 32 32 32 32 32 32 32 32 31 31 31 32 33 34 34 35 36 36 37
13 14 14 15 16 17 18 19 19 19 20 20 21 22 24 25 26 27 27 28 28 29 30 31 31 31 31 31 31 32 32 32 32 32 32 32 33 33 33 33 34 34 34 34
15 15 16 16 17 18 19 20 20 20 20 20 21 22 23 25 25 26 26 26 26 27 28 28 29 29 29 30 30 30 31 31 31 32 32 32 32 32 32 32 31 31 31 31
16 17 17 17 18 18 19 20 21 21 22 22 22 22 23 23 24 24 25 25 25 25 25 26 26 26 27 28 29 30 31 31 31 31 31 30 30 30 30 30 30 30 30 30
17 17 18 19 19 19 20 20 21 22 22 22 22 21 21 22 22 23 23 24 24 24 25 25 25 26 27 27 28 28 29 30 30 30 30 29 29 29 29 29 29 29 29 29
18 19 19 19 19 19 19 19 19 20 20 20 20 20 20 21 22 22 23 23 24 25 25 25 25 25 26 26 27 27 28 28 28 28 28 28 27 27 27 28 28 28 29 29
19 20 19 19 19 19 18 18 18 18 19 19 20 20 20 21 21 22 23 23 24 25 25 26 25 25 25 26 26 26 26 26 26 27 26 26 27 27 27 27 27 28 28 29
20 20 20 20 19 19 19 19 18 19 19 20 20 20 21 21 22 22 23 24 24 24 24 25 25 25 25 25 25 25 25 25 25 25 26 26 26 27 27 27 27 28 28 29
20 20 20 20 20 19 19 19 19 19 20 20 21 21 22 22 22 22 22 23 23 24 24 24 25 25 25 25 25 25 24 24 24 25 25 26 26 27 27 27 27 27 28 28
20 20 19 18 18 17 17 17 18 18 19 19 19 19 20 20 20 21 21 21 22 22 23 23 24 24 24 24 24 24 24 24 24 24 25 25 25 26 26 26 26 26 26 26
20 20 19 18 17 16 16 16 17 17 17 17 17 17 17 18 18 18 19 20 20 20 21 21 22 23 23 23 24 24 24 24 24 24 23 23 23 24 23 23 23 23 23 23
20 19 18 17 17 16 16 16 16 16 16 16 16 16 17 17 17 18 19 19 20 19 19 19 20 21 22 22 22 22 22 22 22 22 22 22 22 22 21 21 21 21 21 21
Wind_Direction
251 248 247 245 245 244 244 242 242 241 241 241 243 242 243 245 246 247 247 249 249 249 249 250 250 250 251 252 253 255 256 256 256 258 258 260 261 262 261 261 260 260 259 260
250 248 247 245 244 244 245 245 244 243 243 242 243 242 243 245 245 246 248 249 250 250 249 249 250 250 251 251 253 255 257 257 258 259 260 261 261 261 260 259 259 259 260 260
255 251 249 248 246 246 246 247 248 246 244 243 244 243 244 245 245 246 249 249 249 249 249 251 251 251 251 251 252 254 255 258 259 260 260 261 260 259 259 260 260 260 260 259
257 252 251 251 249 248 248 248 248 246 244 243 244 243 244 246 247 248 247 248 248 248 249 250 251 252 251 252 253 253 254 256 258 258 260 261 260 259 258 260 262 262 260 259
258 258 256 252 251 250 249 247 246 247 247 247 246 245 245 245 245 245 246 246 247 248 249 250 251 252 252 252 253 253 254 256 257 257 259 260 259 259 260 260 260 261 261 259
259 258 257 252 249 248 247 246 245 247 249 249 247 246 245 245 245 245 246 246 246 247 248 249 250 251 252 253 254 254 255 255 256 257 258 258 258 259 260 260 260 261 261 260
258 257 254 251 250 246 245 245 245 245 247 247 247 246 245 245 246 246 247 247 246 247 247 248 250 251 252 253 254 255 255 256 257 256 256 256 258 259 259 259 260 261 260 259
257 255 255 251 251 248 247 246 246 246 247 247 246 246 245 245 246 247 247 246 246 247 247 248 251 253 253 253 254 255 256 257 257 256 255 256 257 258 259 258 259 260 260 259
261 261 262 258 255 252 250 249 247 248 249 248 247 246 245 244 245 246 246 246 246 247 248 249 251 253 254 253 254 255 256 256 256 255 255 255 257 258 258 258 259 259 259 260
264 264 265 262 258 255 253 250 247 248 249 248 247 245 244 244 244 246 247 246 246 247 249 250 251 253 254 254 255 256 256 256 256 256 256 256 257 257 258 258 259 260 260 261
265 264 264 265 261 256 254 251 248 246 247 248 248 246 245 245 246 247 248 247 247 247 248 249 250 252 253 254 255 256 257 257 257 256 256 257 256 256 257 258 259 260 261 261
267 265 266 267 267 261 257 255 250 248 247 249 250 249 248 248 249 249 249 249 249 248 249 250 252 253 254 255 256 257 257 256 256 257 257 256 257 257 257 258 259 260 261 261
271 270 270 269 268 265 258 252 249 247 247 249 250 252 252 252 252 251 250 249 249 250 251 252 253 254 255 256 257 257 257 257 257 257 258 257 257 257 257 258 259 261 261 260
275 274 275 273 271 267 262 258 254 250 249 250 251 252 253 253 252 251 251 251 251 252 252 254 255 256 256 256 257 257 257 258 258 258 258 258 258 257 257 258 260 260 261 260
280 279 278 275 274 269 266 264 261 257 255 254 253 253 254 253 253 252 253 254 254 254 254 255 256 257 257 256 256 256 256 257 258 258 258 259 260 259 258 259 259 260 261 261
288 284 280 277 276 271 267 265 263 260 259 257 256 256 257 257 256 255 255 256 256 257 257 256 256 256 256 256 255 254 255 255 255 256 257 258 259 260 260 260 260 261 262 263
293 290 286 282 278 274 269 267 267 266 263 262 262 261 261 260 259 258 258 259 258 258 256 256 256 255 254 253 253 253 255 256 256 256 257 259 260 261 261 261 262 263 264 264
292 291 289 286 283 279 274 271 269 267 265 265 265 265 264 264 262 260 259 258 258 257 256 255 255 254 253 252 252 254 255 256 257 259 260 262 262 261 261 261 262 264 265 265
293 292 290 290 288 285 280 274 271 269 268 268 267 266 264 263 262 260 257 256 255 255 253 253 252 252 252 252 252 253 255 257 259 261 262 263 263 261 261 261 262 263 264 265
296 294 293 292 290 287 284 278 274 272 270 268 266 264 262 262 261 260 258 256 254 253 253 253 254 255 255 254 255 256 256 258 259 261 261 261 261 261 262 262 262 263 263 264
300 299 297 295 293 290 285 281 278 275 273 270 267 264 263 263 261 260 258 258 257 255 255 255 256 256 256 257 257 258 258 258 259 259 260 258 259 260 262 263 264 264 264 266
304 303 300 297 294 292 288 283 279 275 274 273 270 267 266 266 265 263 261 260 259 258 256 256 256 257 258 259 259 259 259 259 259 258 258 257 258 259 262 264 264 264 265 266
306 305 301 297 294 291 288 284 281 279 277 275 272 269 268 267 266 266 265 264 263 261 259 257 256 257 258 259 260 260 260 260 259 258 258 258 260 261 262 264 265 265 266 266
310 309 305 300 296 291 288 286 284 282 280 278 275 272 271 269 268 267 266 265 264 262 262 260 259 259 260 261 261 260 260 260 260 259 259 260 261 261 263 264 265 265 266 267
310 310 308 305 300 295 291 289 287 286 284 282 278 276 273 270 268 266 265 265 265 263 262 260 259 259 260 260 261 261 261 262 262 261 261 261 262 262 263 263 264 264 265 266
312 312 311 308 305 300 296 294 292 290 288 285 282 278 276 273 271 268 266 266 266 265 264 262 261 260 260 260 260 260 260 261 262 262 261 260 260 261 262 262 262 262 262 263
313 312 311 309 306 303 299 296 294 293 291 288 285 282 279 277 274 272 270 268 267 267 266 265 264 263 262 260 259 258 258 258 258 258 258 258 258 259 259 259 260 260 261 261
Height
5515 5518 5519 5522 5525 5528 5531 5534 5538 5543 5547 5552 5554 5557 5560 5563 5566 5570 5573 5575 5578 5581 5583 5586 5588 5591 5593 5595 5597 5599 5600 5602 5603 5605 5605 5606 5607 5607 5608 5608 5610 5610 5611 5612
5507 5509 5510 5512 5516 5518 5521 5524 5527 5531 5536 5541 5543 5546 5549 5552 5556 5559 5562 5565 5567 5570 5573 5575 5577 5580 5582 5584 5587 5588 5590 5591 5593 5594 5595 5595 5596 5596 5597 5598 5599 5599 5600 5600
5497 5499 5500 5504 5507 5508 5511 5514 5518 5521 5526 5529 5532 5535 5538 5542 5545 5548 5551 5554 5557 5559 5562 5564 5566 5568 5571 5573 5575 5577 5579 5581 5582 5583 5584 5585 5585 5586 5586 5587 5588 5588 5589 5589
5488 5491 5492 5496 5497 5499 5501 5504 5507 5511 5515 5518 5521 5524 5528 5531 5534 5537 5540 5543 5546 5548 5551 5553 5555 5557 5560 5562 5564 5566 5568 5570 5571 5572 5573 5574 5574 5575 5576 5577 5577 5578 5578 5579
5480 5481 5482 5486 5487 5489 5491 5494 5497 5500 5504 5507 5510 5514 5517 5520 5523 5526 5529 5531 5534 5537 5540 5542 5544 5547 5549 5551 5553 5555 5557 5559 5560 5561 5562 5563 5564 5565 5566 5566 5567 5568 5568 5569
5472 5473 5474 5478 5479 5480 5483 5485 5488 5491 5494 5497 5500 5504 5508 5510 5513 5515 5518 5520 5523 5526 5529 5532 5534 5536 5538 5540 5542 5544 5546 5547 5549 5551 5552 5553 5554 5555 5556 5556 5557 5557 5558 5558
5466 5466 5467 5470 5472 5473 5476 5478 5480 5482 5485 5487 5490 5493 5497 5499 5502 5505 5507 5510 5513 5516 5518 5521 5523 5525 5527 5529 5531 5533 5534 5536 5538 5539 5541 5542 5543 5544 5545 5546 5547 5547 5548 5549
5460 5461 5464 5464 5464 5466 5467 5469 5471 5474 5476 5478 5480 5483 5486 5489 5492 5495 5497 5500 5502 5505 5508 5510 5512 5514 5516 5518 5520 5521 5523 5525 5527 5528 5530 5532 5533 5534 5535 5536 5537 5537 5538 5538
5455 5457 5457 5457 5457 5458 5459 5461 5463 5466 5468 5470 5472 5475 5477 5480 5483 5485 5488 5490 5493 5495 5498 5500 5502 5504 5506 5507 5509 5510 5512 5514 5516 5518 5519 5521 5522 5523 5524 5525 5526 5527 5528 5529
5450 5450 5450 5451 5451 5451 5452 5454 5456 5458 5460 5462 5464 5467 5469 5472 5474 5477 5479 5482 5484 5486 5488 5491 5492 5494 5495 5497 5498 5500 5502 5503 5505 5507 5508 5510 5511 5513 5514 5515 5516 5517 5518 5519
5445 5446 5445 5445 5445 5445 5446 5447 5448 5450 5452 5454 5457 5459 5461 5464 5466 5468 5471 5473 5475 5477 5479 5481 5483 5484 5486 5487 5489 5490 5492 5493 5495 5496 5497 5499 5500 5502 5503 5504 5505 5506 5507 5508
5440 5440 5440 5440 5439 5439 5440 5441 5442 5444 5446 5447 5449 5451 5453 5455 5457 5460 5462 5463 5465 5467 5469 5471 5473 5474 5476 5477 5479 5480 5482 5483 5484 5486 5487 5488 5489 5490 5491 5493 5494 5495 5496 5496
5435 5435 5434 5434 5434 5433 5434 5435 5436 5437 5439 5440 5442 5444 5445 5447 5449 5451 5453 5454 5456 5458 5460 5462 5463 5464 5466 5467 5469 5470 5471 5473 5474 5475 5476 5477 5478 5479 5481 5482 5483 5484 5484 5485
5430 5430 5429 5429 5428 5428 5428 5429 5430 5431 5432 5433 5435 5436 5438 5439 5441 5442 5444 5445 5447 5448 5450 5452 5453 5454 5456 5457 5458 5460 5461 5462 5464 5465 5466 5467 5467 5469 5470 5471 5472 5472 5473 5473
5426 5425 5424 5423 5423 5423 5423 5423 5424 5425 5426 5427 5428 5429 5431 5432 5433 5434 5435 5436 5437 5439 5440 5441 5442 5444 5445 5446 5448 5449 5451 5452 5453 5455 5456 5456 5457 5458 5459 5459 5460 5461 5461 5462
5421 5420 5419 5418 5418 5417 5417 5418 5418 5419 5419 5420 5421 5422 5423 5424 5424 5425 5426 5427 5428 5429 5430 5431 5432 5433 5434 5436 5437 5439 5440 5442 5443 5444 5445 5446 5447 5447 5448 5448 5449 5450 5450 5451
5417 5416 5415 5414 5413 5412 5412 5412 5412 5412 5413 5413 5414 5415 5415 5415 5416 5416 5417 5418 5419 5419 5420 5421 5422 5423 5424 5426 5427 5429 5430 5432 5433 5434 5435 5436 5436 5437 5437 5438 5438 5439 5440 5440
5412 5411 5410 5409 5408 5407 5406 5406 5406 5406 5406 5406 5407 5407 5407 5407 5407 5408 5408 5409 5409 5410 5411 5411 5412 5413 5414 5416 5417 5419 5420 5422 5423 5424 5425 5425 5425 5426 5427 5428 5428 5429 5429 5429
5407 5406 5405 5403 5402 5401 5400 5399 5399 5399 5399 5399 5399 5399 5399 5399 5399 5399 5400 5400 5401 5401 5402 5403 5403 5405 5406 5407 5408 5409 5410 5411 5413 5413 5414 5415 5415 5416 5417 5418 5418 5419 5419 5420
5402 5400 5399 5397 5396 5395 5393 5392 5392 5391 5391 5391 5391 5391 5391 5391 5391 5391 5392 5392 5393 5393 5394 5395 5395 5396 5397 5398 5399 5400 5401 5402 5403 5403 5404 5405 5406 5406 5407 5408 5408 5409 5410 5410
5397 5395 5393 5391 5389 5388 5387 5386 5385 5385 5384 5384 5384 5384 5383 5384 5384 5384 5384 5384 5385 5385 5386 5386 5387 5388 5388 5389 5390 5391 5392 5392 5393 5394 5395 5396 5396 5397 5398 5399 5399 5400 5400 5401
5391 5389 5387 5385 5383 5382 5380 5379 5379 5378 5377 5377 5377 5376 5376 5376 5376 5376 5376 5377 5377 5377 5378 5378 5379 5379 5380 5381 5381 5382 5383 5383 5384 5385 5386 5387 5388 5388 5389 5390 5390 5390 5391 5391
5386 5383 5381 5379 5377 5376 5374 5373 5372 5371 5371 5370 5370 5369 5369 5369 5368 5369 5369 5369 5369 5369 5369 5370 5370 5371 5372 5373 5373 5374 5374 5375 5375 5376 5377 5378 5379 5380 5380 5381 5381 5381 5381 5381
5380 5377 5375 5373 5371 5369 5368 5366 5365 5364 5364 5363 5362 5362 5361 5361 5360 5360 5360 5360 5361 5361 5361 5361 5362 5363 5363 5364 5365 5365 5366 5366 5367 5368 5368 5369 5370 5370 5371 5371 5371 5372 5372 5372
5374 5371 5369 5367 5365 5363 5361 5360 5359 5358 5357 5356 5355 5354 5353 5353 5353 5353 5353 5353 5353 5353 5353 5353 5354 5354 5355 5356 5356 5357 5357 5358 5358 5359 5359 5360 5360 5361 5361 5362 5362 5362 5362 5363
5369 5366 5363 5361 5359 5357 5356 5354 5353 5352 5351 5349 5348 5347 5346 5346 5346 5345 5346 5346 5346 5345 5345 5346 5346 5346 5347 5347 5348 5348 5349 5349 5350 5350 5351 5352 5352 5352 5353 5353 5353 5354 5354 5354
5363 5361 5358 5356 5353 5351 5350 5348 5347 5346 5344 5343 5342 5341 5340 5340 5339 5339 5339 5338 5338 5338 5338 5338 5338 5339 5339 5339 5339 5340 5340 5341 5342 5342 5343 5344 5344 5344 5345 5345 5346 5346 5346 5347